Regional Weather Roundup
Issued by NWS State College, PA

Home | Current Version | Previous Version | Graphics & Text | Print | Product List | Glossary Off
Versions: 1 2 3 4 5 6 7 8 9 10 11 12 13 14 15 16 17 18 19 20 21 22 23 24 25 26 27 28 29 30 31 32 33 34 35 36 37 38 39 40 41 42 43 44 45 46 47 48 49 50

797
ASUS41 KCTP 051410
RWRCTP

REGIONAL WEATHER ROUNDUP
NATIONAL WEATHER SERVICE STATE COLLEGE PA
1000 AM EDT THU MAY 05 2016

Note: "fair" indicates few or no clouds below 12,000 feet with no
significant weather and/or obstructions to visibility.

* = STATION THAT DOES NOT REPORT PRECIPITATION /E.G. RAIN...SNOW...ETC/
    THUNDER OR FOG.

PAZ002>004-007>009-013>016-020>023-029>032-051500-
WESTERN PENNSYLVANIA

CITY           SKY/WX    TMP DP  RH WIND       PRES   REMARKS
ERIE           FOG       48  46  93 NE15      29.78R VSB 1
MEADVILLE      CLOUDY    52  47  83 N7        29.74R
FRANKLIN*      PTSUNNY   52  46  82 CALM      29.76R
NEW CASTLE     CLOUDY    52  48  86 NE7       29.75R
BEAVER COUNTY  LGT RAIN  50  46  87 N3        29.73R
BUTLER*        CLOUDY    52  48  87 NE6       29.74S
PITTSBURGH INT DRIZZLE   53  48  83 NW8       29.71S
PITTSBURGH     CLOUDY    52  48  86 N6        29.70R FOG
INDIANA*       PTSUNNY   54  50  87 VRB6G12   29.74R
LATROBE        CLOUDY    50  50 100 VRB3      29.71R
WASHINGTON CO* CLOUDY    52  46  82 N6        29.71S
$$

PAZ004>006-010>012-017>019-024>028-033>037-041-042-045-046-049>053-051500-
CENTRAL PENNSYLVANIA

CITY           SKY/WX    TMP DP  RH WIND       PRES   REMARKS
BRADFORD       CLOUDY    53  43  68 E12       29.73S
DUBOIS         CLOUDY   N/A N/A N/A N6        29.71S
CLEARFIELD     CLOUDY    55  45  68 NE5       29.71R
JOHNSTOWN      CLOUDY    51  42  71 NE12      29.68S
ALTOONA        CLOUDY    51  45  79 NE7       29.70R
STATE COLLEGE  CLOUDY    50  46  87 NE9       29.71R
WILLIAMSPORT   CLOUDY    55  44  66 NE6       29.71S
SELINSGROVE    CLOUDY    53  46  77 NE7       29.73R
FT INDIANTOWN  CLOUDY    53  46  75 NE8       29.70S
CAPITAL CITY   CLOUDY    54  44  69 E10       29.70F
HARRISBURG     CLOUDY    53  45  74 VRB3      29.70S
YORK           CLOUDY    51  46  83 NE9       29.70S
$$

PAZ038>040-043-044-047-048-054-055-060>062-067>071-051500-
EASTERN PENNSYLVANIA

CITY           SKY/WX    TMP DP  RH WIND       PRES   REMARKS
SCRANTON       CLOUDY    51  42  71 NE9       29.72R
MOUNT POCONO   CLOUDY    43  41  93 NE12      29.70R
ALLENTOWN      CLOUDY    52  44  74 NE13      29.71S
QUAKERTOWN*    CLOUDY    48  45  87 NE7       29.71S
READING        CLOUDY    51  43  74 NE12      29.70S
LANCASTER      CLOUDY    51  45  79 NE10      29.70R
COATESVILLE    CLOUDY    48  48 100 NE7       29.70S
POTTSTOWN      CLOUDY    50  44  80 NE8       29.71S
BLUE BELL      CLOUDY    48  43  81 CALM      29.69F
DOYLESTOWN     CLOUDY    49  43  80 NE8       29.69S
WILLOW GROVE   NOT AVBL
NORTH PHILA    CLOUDY    52  46  80 NE12      29.71F
PHILADELPHIA   CLOUDY    51  43  74 NE16      29.69F
$$




USA.gov is the U.S. government's official web portal to all federal, state and local government web resources and services.